QPF
0.00 0.00 0.00 0.00 0.00 0.01 0.01 0.01 0.01 0.01 0.02 0.03 0.03 0.02 0.02 0.01 0.01 0.00 0.01 0.02 0.02 0.02 0.03 0.03 0.03 0.02 0.02 0.02 0.02 0.03 0.02 0.02 0.02 0.02 0.03 0.04 0.04 0.03 0.02 0.02 0.02 0.02 0.02
0.01 0.01 0.01 0.00 0.00 0.01 0.01 0.01 0.01 0.02 0.03 0.02 0.02 0.01 0.01 0.02 0.00 0.00 0.01 0.01 0.02 0.02 0.03 0.03 0.03 0.02 0.03 0.03 0.03 0.04 0.04 0.03 0.03 0.04 0.04 0.03 0.03 0.04 0.03 0.02 0.02 0.02 0.02
0.01 0.01 0.01 0.01 0.01 0.01 0.01 0.01 0.01 0.01 0.02 0.02 0.02 0.01 0.01 0.02 0.02 0.01 0.00 0.00 0.01 0.02 0.03 0.04 0.04 0.03 0.03 0.03 0.03 0.03 0.04 0.03 0.02 0.03 0.04 0.03 0.02 0.03 0.03 0.03 0.03 0.03 0.02
0.02 0.01 0.01 0.02 0.01 0.01 0.01 0.02 0.03 0.02 0.02 0.03 0.03 0.03 0.03 0.03 0.02 0.01 0.00 0.00 0.00 0.01 0.02 0.03 0.03 0.02 0.02 0.02 0.03 0.03 0.04 0.03 0.03 0.03 0.02 0.01 0.02 0.02 0.02 0.02 0.03 0.02 0.02
0.02 0.02 0.02 0.02 0.01 0.02 0.02 0.03 0.03 0.04 0.03 0.05 0.04 0.04 0.04 0.03 0.03 0.02 0.01 0.00 0.00 0.00 0.01 0.02 0.03 0.02 0.02 0.02 0.03 0.04 0.04 0.04 0.04 0.03 0.02 0.02 0.03 0.03 0.02 0.02 0.02 0.02 0.01
0.03 0.02 0.02 0.03 0.03 0.03 0.02 0.02 0.03 0.03 0.03 0.04 0.05 0.04 0.04 0.04 0.03 0.02 0.01 0.01 0.00 0.01 0.01 0.01 0.01 0.02 0.02 0.03 0.04 0.04 0.05 0.05 0.05 0.04 0.04 0.04 0.04 0.03 0.02 0.03 0.02 0.02 0.02
0.05 0.05 0.05 0.05 0.06 0.03 0.02 0.01 0.01 0.03 0.04 0.04 0.04 0.04 0.04 0.04 0.03 0.02 0.02 0.01 0.01 0.01 0.01 0.01 0.01 0.01 0.01 0.02 0.03 0.04 0.04 0.07 0.07 0.04 0.04 0.04 0.04 0.03 0.03 0.02 0.02 0.02 0.01
0.08 0.07 0.08 0.07 0.06 0.04 0.02 0.01 0.01 0.02 0.03 0.04 0.04 0.03 0.03 0.03 0.03 0.03 0.04 0.03 0.02 0.02 0.01 0.02 0.02 0.01 0.01 0.01 0.01 0.02 0.04 0.05 0.05 0.03 0.03 0.03 0.04 0.03 0.03 0.02 0.02 0.02 0.01
0.08 0.09 0.09 0.09 0.07 0.05 0.05 0.04 0.02 0.01 0.02 0.03 0.03 0.02 0.01 0.01 0.01 0.01 0.02 0.02 0.01 0.01 0.01 0.01 0.01 0.01 0.01 0.01 0.01 0.01 0.04 0.04 0.03 0.04 0.07 0.07 0.04 0.03 0.02 0.03 0.03 0.03 0.02
0.05 0.06 0.08 0.09 0.07 0.06 0.05 0.06 0.04 0.02 0.02 0.02 0.02 0.01 0.01 0.01 0.01 0.01 0.01 0.01 0.01 0.01 0.01 0.01 0.01 0.01 0.01 0.01 0.01 0.01 0.01 0.01 0.02 0.03 0.05 0.05 0.04 0.03 0.03 0.03 0.03 0.03 0.03
0.06 0.06 0.06 0.07 0.06 0.05 0.03 0.04 0.04 0.03 0.02 0.02 0.02 0.01 0.02 0.02 0.01 0.01 0.01 0.01 0.01 0.01 0.01 0.01 0.01 0.01 0.01 0.01 0.01 0.01 0.02 0.01 0.01 0.02 0.03 0.04 0.03 0.03 0.03 0.03 0.03 0.05 0.05
0.06 0.06 0.06 0.07 0.07 0.05 0.03 0.02 0.03 0.03 0.02 0.02 0.02 0.02 0.02 0.02 0.02 0.02 0.01 0.01 0.01 0.01 0.01 0.01 0.01 0.01 0.01 0.02 0.01 0.01 0.02 0.01 0.01 0.02 0.02 0.03 0.03 0.03 0.03 0.03 0.03 0.04 0.05
0.06 0.06 0.06 0.06 0.07 0.07 0.04 0.03 0.03 0.02 0.02 0.02 0.03 0.02 0.02 0.01 0.02 0.02 0.02 0.02 0.02 0.01 0.01 0.01 0.01 0.01 0.01 0.01 0.01 0.02 0.02 0.02 0.02 0.02 0.02 0.02 0.02 0.02 0.02 0.02 0.02 0.03 0.03
0.07 0.08 0.08 0.07 0.06 0.06 0.06 0.05 0.03 0.03 0.03 0.03 0.03 0.02 0.02 0.02 0.02 0.02 0.02 0.03 0.02 0.02 0.01 0.01 0.01 0.01 0.01 0.01 0.01 0.02 0.01 0.02 0.02 0.03 0.03 0.02 0.02 0.01 0.01 0.01 0.01 0.01 0.01
0.06 0.07 0.07 0.08 0.07 0.06 0.06 0.05 0.02 0.02 0.03 0.03 0.02 0.02 0.02 0.02 0.03 0.02 0.02 0.02 0.03 0.02 0.01 0.01 0.01 0.01 0.02 0.01 0.02 0.01 0.01 0.02 0.01 0.02 0.02 0.02 0.02 0.01 0.01 0.00 0.00 0.00 0.00
0.03 0.04 0.05 0.05 0.06 0.06 0.05 0.05 0.04 0.05 0.05 0.04 0.03 0.02 0.01 0.01 0.01 0.02 0.03 0.04 0.04 0.03 0.02 0.02 0.01 0.01 0.01 0.01 0.02 0.01 0.01 0.01 0.01 0.01 0.01 0.01 0.01 0.01 0.01 0.01 0.01 0.01 0.01
0.04 0.04 0.05 0.05 0.05 0.06 0.06 0.06 0.05 0.07 0.07 0.05 0.04 0.04 0.03 0.03 0.03 0.03 0.04 0.05 0.04 0.04 0.03 0.02 0.01 0.01 0.01 0.01 0.01 0.01 0.01 0.01 0.01 0.01 0.01 0.01 0.01 0.01 0.01 0.01 0.01 0.01 0.01
0.04 0.05 0.05 0.06 0.05 0.06 0.07 0.06 0.04 0.05 0.06 0.05 0.03 0.04 0.03 0.05 0.04 0.04 0.05 0.06 0.06 0.05 0.04 0.02 0.02 0.02 0.02 0.03 0.03 0.03 0.03 0.02 0.02 0.01 0.01 0.01 0.01 0.01 0.01 0.01 0.01 0.01 0.01
0.06 0.05 0.04 0.04 0.04 0.05 0.06 0.06 0.05 0.05 0.04 0.03 0.04 0.03 0.02 0.03 0.03 0.03 0.04 0.06 0.07 0.09 0.08 0.07 0.07 0.07 0.06 0.05 0.05 0.05 0.04 0.03 0.02 0.02 0.02 0.02 0.02 0.02 0.01 0.01 0.01 0.01 0.01
0.07 0.07 0.06 0.06 0.07 0.07 0.06 0.07 0.07 0.05 0.03 0.04 0.05 0.06 0.06 0.05 0.04 0.05 0.06 0.07 0.10 0.12 0.14 0.13 0.11 0.07 0.05 0.05 0.05 0.05 0.05 0.04 0.04 0.04 0.05 0.04 0.04 0.03 0.02 0.01 0.01 0.01 0.01
0.06 0.07 0.07 0.06 0.05 0.04 0.04 0.05 0.06 0.06 0.05 0.05 0.06 0.06 0.06 0.06 0.06 0.06 0.05 0.04 0.06 0.06 0.07 0.07 0.07 0.06 0.05 0.05 0.06 0.06 0.07 0.08 0.07 0.06 0.05 0.05 0.04 0.03 0.02 0.01 0.01 0.01 0.01
0.05 0.05 0.05 0.04 0.04 0.04 0.04 0.06 0.05 0.05 0.05 0.06 0.05 0.06 0.07 0.09 0.08 0.07 0.06 0.07 0.07 0.07 0.06 0.06 0.06 0.05 0.05 0.05 0.06 0.07 0.07 0.07 0.06 0.05 0.05 0.05 0.04 0.03 0.03 0.02 0.01 0.01 0.01
0.06 0.05 0.05 0.04 0.04 0.03 0.04 0.05 0.05 0.05 0.06 0.06 0.06 0.06 0.08 0.09 0.09 0.07 0.07 0.07 0.07 0.08 0.07 0.06 0.04 0.03 0.04 0.05 0.07 0.07 0.07 0.06 0.06 0.06 0.06 0.05 0.04 0.03 0.02 0.01 0.01 0.00 0.01
0.05 0.04 0.04 0.04 0.03 0.04 0.06 0.07 0.07 0.07 0.07 0.07 0.08 0.09 0.09 0.09 0.10 0.11 0.10 0.08 0.07 0.07 0.09 0.07 0.05 0.04 0.04 0.04 0.05 0.07 0.07 0.05 0.04 0.04 0.04 0.04 0.03 0.03 0.02 0.01 0.01 0.01 0.00
0.05 0.05 0.05 0.04 0.05 0.06 0.07 0.08 0.06 0.05 0.06 0.06 0.07 0.09 0.09 0.07 0.09 0.11 0.10 0.09 0.08 0.07 0.09 0.11 0.08 0.05 0.04 0.04 0.05 0.05 0.05 0.05 0.05 0.04 0.04 0.03 0.03 0.04 0.03 0.02 0.01 0.01 0.01
0.04 0.04 0.04 0.04 0.05 0.07 0.07 0.06 0.07 0.06 0.05 0.05 0.05 0.07 0.08 0.09 0.10 0.11 0.10 0.09 0.09 0.08 0.08 0.08 0.09 0.08 0.06 0.05 0.06 0.06 0.05 0.04 0.03 0.03 0.03 0.03 0.03 0.03 0.03 0.04 0.04 0.04 0.03
MSLP
1017.24 1017.37 1017.43 1017.45 1017.48 1017.53 1017.63 1017.78 1017.98 1018.21 1018.45 1018.69 1018.90 1019.08 1019.24 1019.38 1019.52 1019.65 1019.79 1019.93 1020.05 1020.16 1020.25 1020.33 1020.40 1020.49 1020.60 1020.74 1020.92 1021.14 1021.39 1021.66 1021.95 1022.23 1022.51 1022.78 1023.04 1023.28 1023.50 1023.69 1023.85 1023.97 1024.05
1017.38 1017.51 1017.58 1017.62 1017.67 1017.75 1017.89 1018.08 1018.33 1018.61 1018.90 1019.16 1019.40 1019.58 1019.72 1019.83 1019.91 1019.98 1020.05 1020.12 1020.21 1020.30 1020.39 1020.49 1020.59 1020.70 1020.82 1020.97 1021.13 1021.31 1021.52 1021.75 1021.99 1022.25 1022.52 1022.80 1023.09 1023.36 1023.61 1023.84 1024.02 1024.15 1024.24
1017.44 1017.57 1017.67 1017.75 1017.84 1017.96 1018.15 1018.39 1018.67 1018.99 1019.32 1019.61 1019.86 1020.04 1020.16 1020.22 1020.25 1020.25 1020.24 1020.25 1020.28 1020.34 1020.42 1020.53 1020.66 1020.80 1020.95 1021.10 1021.25 1021.41 1021.57 1021.76 1021.96 1022.19 1022.45 1022.73 1023.03 1023.33 1023.62 1023.87 1024.08 1024.24 1024.35
1017.43 1017.58 1017.71 1017.84 1017.98 1018.15 1018.38 1018.65 1018.98 1019.32 1019.66 1019.97 1020.23 1020.41 1020.51 1020.54 1020.51 1020.45 1020.38 1020.32 1020.30 1020.32 1020.38 1020.49 1020.63 1020.79 1020.96 1021.12 1021.27 1021.41 1021.55 1021.70 1021.87 1022.07 1022.30 1022.58 1022.88 1023.20 1023.51 1023.80 1024.04 1024.23 1024.36
1017.37 1017.55 1017.72 1017.90 1018.09 1018.31 1018.57 1018.87 1019.21 1019.56 1019.91 1020.22 1020.48 1020.66 1020.76 1020.77 1020.72 1020.61 1020.49 1020.38 1020.30 1020.27 1020.31 1020.41 1020.55 1020.71 1020.89 1021.06 1021.22 1021.35 1021.47 1021.59 1021.73 1021.90 1022.12 1022.38 1022.68 1023.00 1023.33 1023.63 1023.89 1024.10 1024.26
1017.28 1017.50 1017.72 1017.95 1018.18 1018.44 1018.72 1019.03 1019.36 1019.71 1020.05 1020.36 1020.62 1020.81 1020.92 1020.94 1020.88 1020.76 1020.61 1020.46 1020.34 1020.28 1020.28 1020.34 1020.46 1020.62 1020.79 1020.97 1021.12 1021.25 1021.36 1021.46 1021.59 1021.74 1021.93 1022.18 1022.46 1022.78 1023.10 1023.40 1023.67 1023.89 1024.05
1017.18 1017.43 1017.70 1017.97 1018.26 1018.54 1018.84 1019.14 1019.45 1019.77 1020.09 1020.40 1020.66 1020.87 1021.01 1021.06 1021.03 1020.93 1020.78 1020.62 1020.47 1020.36 1020.32 1020.34 1020.42 1020.55 1020.71 1020.87 1021.01 1021.14 1021.25 1021.35 1021.47 1021.61 1021.79 1022.01 1022.28 1022.57 1022.87 1023.15 1023.41 1023.62 1023.78
1017.05 1017.34 1017.66 1017.98 1018.30 1018.61 1018.91 1019.20 1019.49 1019.79 1020.08 1020.37 1020.65 1020.88 1021.06 1021.16 1021.18 1021.12 1021.00 1020.85 1020.68 1020.55 1020.45 1020.42 1020.45 1020.54 1020.66 1020.79 1020.93 1021.05 1021.16 1021.27 1021.38 1021.52 1021.69 1021.90 1022.14 1022.40 1022.67 1022.92 1023.15 1023.34 1023.48
1016.89 1017.22 1017.58 1017.94 1018.30 1018.64 1018.95 1019.23 1019.50 1019.77 1020.04 1020.32 1020.60 1020.86 1021.08 1021.24 1021.33 1021.33 1021.25 1021.11 1020.95 1020.78 1020.65 1020.56 1020.53 1020.56 1020.64 1020.74 1020.85 1020.97 1021.09 1021.21 1021.33 1021.47 1021.64 1021.83 1022.04 1022.27 1022.50 1022.71 1022.90 1023.05 1023.17
1016.67 1017.03 1017.44 1017.85 1018.25 1018.62 1018.94 1019.22 1019.48 1019.72 1019.98 1020.24 1020.53 1020.81 1021.07 1021.28 1021.43 1021.48 1021.45 1021.35 1021.19 1021.01 1020.85 1020.71 1020.63 1020.60 1020.62 1020.69 1020.78 1020.89 1021.00 1021.13 1021.26 1021.41 1021.58 1021.76 1021.96 1022.15 1022.34 1022.51 1022.65 1022.77 1022.85
1016.39 1016.78 1017.22 1017.67 1018.12 1018.52 1018.86 1019.16 1019.41 1019.65 1019.89 1020.14 1020.42 1020.71 1020.99 1021.24 1021.43 1021.53 1021.55 1021.48 1021.34 1021.17 1020.98 1020.82 1020.69 1020.61 1020.59 1020.62 1020.68 1020.77 1020.89 1021.02 1021.16 1021.31 1021.48 1021.66 1021.83 1022.00 1022.15 1022.29 1022.39 1022.47 1022.52
1016.03 1016.45 1016.91 1017.41 1017.89 1018.33 1018.71 1019.03 1019.30 1019.53 1019.76 1020.00 1020.26 1020.54 1020.83 1021.09 1021.30 1021.44 1021.50 1021.46 1021.36 1021.20 1021.02 1020.84 1020.69 1020.58 1020.52 1020.52 1020.55 1020.62 1020.73 1020.85 1020.99 1021.15 1021.31 1021.48 1021.64 1021.78 1021.91 1022.01 1022.08 1022.13 1022.16
1015.61 1016.04 1016.53 1017.06 1017.57 1018.06 1018.48 1018.83 1019.11 1019.35 1019.58 1019.80 1020.04 1020.30 1020.57 1020.83 1021.05 1021.21 1021.30 1021.30 1021.24 1021.11 1020.95 1020.79 1020.64 1020.52 1020.44 1020.41 1020.42 1020.46 1020.54 1020.65 1020.78 1020.92 1021.07 1021.22 1021.36 1021.48 1021.58 1021.66 1021.71 1021.74 1021.76
1015.14 1015.58 1016.08 1016.63 1017.18 1017.70 1018.16 1018.55 1018.86 1019.12 1019.34 1019.56 1019.78 1020.01 1020.25 1020.49 1020.70 1020.88 1020.99 1021.04 1021.02 1020.95 1020.84 1020.71 1020.58 1020.47 1020.39 1020.33 1020.32 1020.33 1020.38 1020.45 1020.55 1020.66 1020.79 1020.91 1021.03 1021.13 1021.20 1021.26 1021.28 1021.30 1021.31
1014.64 1015.08 1015.60 1016.16 1016.73 1017.28 1017.78 1018.21 1018.56 1018.84 1019.08 1019.28 1019.48 1019.69 1019.90 1020.12 1020.33 1020.51 1020.65 1020.74 1020.78 1020.77 1020.73 1020.66 1020.57 1020.49 1020.41 1020.34 1020.30 1020.28 1020.28 1020.31 1020.36 1020.43 1020.52 1020.60 1020.69 1020.76 1020.81 1020.83 1020.84 1020.84 1020.84
1014.13 1014.57 1015.09 1015.66 1016.25 1016.83 1017.36 1017.83 1018.22 1018.54 1018.79 1019.01 1019.20 1019.40 1019.59 1019.79 1019.99 1020.18 1020.35 1020.49 1020.59 1020.66 1020.68 1020.68 1020.65 1020.60 1020.53 1020.46 1020.39 1020.33 1020.29 1020.26 1020.26 1020.27 1020.31 1020.35 1020.39 1020.42 1020.44 1020.44 1020.43 1020.41 1020.39
1013.60 1014.05 1014.57 1015.14 1015.75 1016.35 1016.92 1017.43 1017.87 1018.23 1018.52 1018.76 1018.97 1019.16 1019.35 1019.55 1019.75 1019.95 1020.15 1020.34 1020.50 1020.63 1020.73 1020.79 1020.82 1020.80 1020.76 1020.69 1020.60 1020.50 1020.41 1020.33 1020.26 1020.22 1020.20 1020.19 1020.19 1020.18 1020.16 1020.13 1020.09 1020.04 1020.00
1013.02 1013.48 1014.02 1014.61 1015.23 1015.86 1016.47 1017.03 1017.52 1017.94 1018.28 1018.56 1018.79 1019.00 1019.20 1019.40 1019.61 1019.83 1020.05 1020.28 1020.49 1020.68 1020.84 1020.96 1021.03 1021.06 1021.03 1020.96 1020.86 1020.73 1020.60 1020.47 1020.36 1020.27 1020.20 1020.15 1020.10 1020.06 1020.01 1019.94 1019.87 1019.79 1019.72
1012.38 1012.87 1013.42 1014.04 1014.69 1015.36 1016.02 1016.63 1017.18 1017.66 1018.06 1018.39 1018.66 1018.90 1019.12 1019.33 1019.55 1019.78 1020.02 1020.27 1020.51 1020.74 1020.94 1021.11 1021.22 1021.27 1021.26 1021.20 1021.09 1020.95 1020.80 1020.65 1020.51 1020.38 1020.28 1020.20 1020.12 1020.05 1019.97 1019.87 1019.77 1019.67 1019.57
1011.66 1012.18 1012.78 1013.43 1014.12 1014.84 1015.55 1016.22 1016.84 1017.38 1017.84 1018.23 1018.55 1018.82 1019.06 1019.28 1019.50 1019.73 1019.98 1020.23 1020.48 1020.73 1020.95 1021.14 1021.28 1021.35 1021.37 1021.32 1021.23 1021.09 1020.94 1020.78 1020.64 1020.51 1020.39 1020.30 1020.21 1020.12 1020.03 1019.92 1019.80 1019.67 1019.55
1010.88 1011.45 1012.09 1012.79 1013.53 1014.30 1015.07 1015.81 1016.49 1017.10 1017.62 1018.06 1018.43 1018.73 1018.98 1019.21 1019.42 1019.63 1019.86 1020.09 1020.34 1020.58 1020.80 1021.00 1021.15 1021.25 1021.29 1021.27 1021.20 1021.09 1020.97 1020.83 1020.70 1020.59 1020.49 1020.40 1020.32 1020.24 1020.14 1020.03 1019.91 1019.77 1019.64
1010.09 1010.70 1011.39 1012.15 1012.95 1013.78 1014.61 1015.41 1016.15 1016.82 1017.39 1017.88 1018.27 1018.59 1018.84 1019.06 1019.25 1019.43 1019.63 1019.83 1020.04 1020.26 1020.48 1020.67 1020.84 1020.96 1021.02 1021.04 1021.01 1020.95 1020.86 1020.77 1020.68 1020.60 1020.53 1020.48 1020.42 1020.36 1020.28 1020.18 1020.07 1019.94 1019.81
1009.38 1010.03 1010.77 1011.58 1012.43 1013.31 1014.19 1015.04 1015.83 1016.54 1017.16 1017.67 1018.08 1018.40 1018.64 1018.84 1019.00 1019.14 1019.29 1019.45 1019.63 1019.82 1020.02 1020.21 1020.38 1020.52 1020.63 1020.69 1020.71 1020.70 1020.67 1020.63 1020.59 1020.55 1020.52 1020.50 1020.48 1020.44 1020.39 1020.32 1020.23 1020.13 1020.02
1008.86 1009.54 1010.31 1011.15 1012.05 1012.96 1013.88 1014.76 1015.57 1016.31 1016.93 1017.45 1017.86 1018.17 1018.40 1018.56 1018.69 1018.79 1018.89 1019.01 1019.16 1019.32 1019.51 1019.70 1019.89 1020.06 1020.20 1020.31 1020.38 1020.42 1020.44 1020.45 1020.45 1020.46 1020.47 1020.48 1020.48 1020.48 1020.46 1020.42 1020.36 1020.29 1020.21
1008.63 1009.32 1010.10 1010.95 1011.85 1012.78 1013.70 1014.58 1015.39 1016.12 1016.74 1017.25 1017.65 1017.95 1018.15 1018.29 1018.38 1018.45 1018.52 1018.61 1018.73 1018.89 1019.07 1019.27 1019.48 1019.68 1019.86 1020.01 1020.13 1020.21 1020.27 1020.32 1020.35 1020.37 1020.40 1020.43 1020.45 1020.47 1020.47 1020.46 1020.44 1020.40 1020.35
1008.73 1009.41 1010.17 1011.00 1011.88 1012.77 1013.66 1014.51 1015.29 1015.99 1016.59 1017.08 1017.46 1017.73 1017.92 1018.04 1018.12 1018.17 1018.23 1018.32 1018.44 1018.60 1018.79 1019.02 1019.25 1019.48 1019.70 1019.88 1020.03 1020.14 1020.22 1020.27 1020.31 1020.34 1020.36 1020.38 1020.40 1020.42 1020.44 1020.44 1020.44 1020.43 1020.41
Thickness
5743 5742 5741 5740 5740 5739 5739 5738 5737 5736 5735 5734 5733 5732 5730 5728 5726 5725 5723 5722 5721 5719 5718 5716 5715 5713 5711 5709 5708 5707 5705 5704 5703 5702 5701 5700 5698 5697 5696 5695 5695 5694 5693
5742 5741 5740 5739 5739 5739 5738 5737 5736 5735 5734 5733 5732 5731 5729 5728 5726 5724 5723 5722 5721 5719 5718 5716 5715 5713 5712 5710 5708 5707 5705 5704 5703 5702 5701 5700 5698 5697 5696 5695 5695 5694 5693
5741 5740 5739 5739 5738 5738 5737 5736 5735 5734 5733 5732 5731 5730 5729 5727 5726 5724 5723 5721 5720 5719 5718 5717 5715 5714 5712 5711 5709 5707 5706 5704 5703 5702 5701 5700 5699 5697 5696 5695 5694 5694 5693
5741 5739 5739 5738 5738 5737 5736 5735 5734 5732 5731 5730 5729 5729 5728 5726 5725 5724 5723 5722 5720 5719 5718 5717 5716 5714 5713 5712 5710 5708 5707 5705 5704 5702 5701 5700 5699 5698 5696 5695 5694 5694 5693
5740 5739 5738 5738 5737 5736 5735 5735 5733 5732 5730 5729 5728 5727 5726 5726 5725 5724 5723 5722 5721 5719 5718 5717 5716 5715 5714 5712 5711 5709 5707 5706 5704 5703 5702 5700 5699 5698 5697 5695 5694 5694 5693
5740 5739 5738 5737 5736 5735 5734 5734 5732 5731 5729 5728 5728 5726 5725 5725 5725 5724 5723 5722 5721 5720 5719 5718 5716 5716 5715 5713 5712 5710 5709 5706 5705 5703 5702 5701 5700 5698 5697 5696 5695 5694 5692
5740 5739 5738 5737 5736 5734 5734 5733 5731 5730 5727 5727 5724 5722 5723 5724 5724 5724 5723 5723 5722 5721 5719 5718 5717 5716 5715 5714 5713 5711 5710 5708 5706 5704 5703 5702 5700 5699 5698 5696 5695 5694 5693
5741 5739 5738 5737 5735 5734 5733 5732 5731 5728 5727 5726 5723 5718 5715 5718 5722 5725 5724 5723 5723 5722 5720 5719 5718 5717 5716 5715 5714 5713 5711 5709 5707 5705 5704 5702 5701 5700 5698 5697 5696 5694 5693
5741 5739 5738 5737 5736 5734 5732 5732 5731 5729 5726 5725 5725 5720 5714 5711 5716 5721 5724 5724 5724 5723 5722 5721 5720 5719 5717 5716 5715 5714 5712 5710 5708 5706 5705 5704 5702 5700 5699 5697 5696 5695 5693
5741 5739 5738 5737 5736 5734 5733 5732 5731 5730 5728 5724 5723 5723 5721 5719 5715 5714 5720 5724 5724 5724 5724 5723 5722 5721 5719 5718 5716 5715 5713 5712 5710 5708 5706 5705 5703 5701 5700 5698 5696 5695 5694
5741 5739 5738 5737 5735 5734 5733 5732 5731 5730 5729 5727 5724 5722 5720 5719 5718 5715 5714 5718 5721 5724 5725 5724 5723 5722 5721 5719 5718 5716 5715 5713 5711 5709 5707 5706 5704 5702 5700 5699 5697 5695 5694
5739 5739 5738 5737 5735 5734 5733 5733 5732 5730 5729 5728 5726 5724 5722 5719 5717 5716 5714 5715 5717 5721 5724 5725 5724 5724 5722 5721 5720 5719 5717 5715 5713 5711 5709 5707 5705 5703 5701 5699 5698 5696 5694
5738 5738 5738 5736 5735 5734 5733 5732 5731 5730 5729 5728 5727 5726 5725 5724 5722 5719 5716 5715 5715 5718 5721 5724 5725 5724 5723 5722 5721 5720 5718 5716 5714 5712 5710 5708 5706 5704 5702 5700 5698 5696 5694
5740 5739 5738 5736 5735 5734 5733 5732 5731 5731 5730 5729 5728 5726 5725 5724 5723 5722 5719 5715 5712 5714 5717 5721 5724 5724 5724 5723 5722 5721 5719 5717 5715 5713 5711 5709 5707 5705 5702 5700 5698 5696 5694
5741 5740 5738 5736 5735 5734 5733 5732 5731 5730 5729 5729 5728 5727 5725 5725 5724 5722 5721 5719 5714 5710 5713 5718 5721 5724 5723 5722 5721 5720 5719 5718 5715 5713 5711 5709 5707 5705 5702 5700 5698 5696 5693
5742 5740 5738 5737 5735 5734 5733 5732 5730 5730 5728 5728 5727 5726 5725 5724 5723 5722 5721 5719 5718 5714 5713 5718 5719 5721 5721 5721 5720 5719 5718 5716 5714 5713 5710 5708 5706 5704 5702 5700 5698 5695 5693
5742 5740 5739 5737 5735 5734 5733 5731 5730 5729 5728 5727 5726 5725 5725 5724 5722 5721 5720 5718 5717 5715 5713 5716 5717 5717 5717 5717 5717 5716 5715 5714 5712 5711 5709 5707 5705 5703 5701 5699 5697 5694 5692
5741 5740 5739 5737 5735 5734 5732 5730 5729 5728 5727 5726 5725 5724 5724 5723 5721 5720 5719 5718 5716 5715 5713 5712 5714 5714 5714 5714 5713 5712 5712 5711 5710 5709 5707 5705 5703 5701 5699 5697 5695 5693 5690
5741 5739 5738 5736 5735 5733 5732 5730 5729 5728 5727 5726 5725 5724 5723 5721 5720 5719 5718 5717 5716 5715 5712 5711 5711 5711 5710 5710 5708 5708 5708 5707 5706 5705 5703 5702 5700 5698 5696 5694 5692 5690 5688
5739 5738 5737 5735 5734 5732 5731 5729 5728 5726 5726 5725 5725 5724 5723 5721 5720 5718 5717 5716 5714 5712 5710 5708 5708 5707 5706 5705 5703 5702 5701 5701 5700 5700 5699 5697 5695 5693 5692 5690 5688 5686 5683
5739 5737 5736 5734 5733 5731 5730 5728 5727 5725 5724 5723 5723 5722 5722 5721 5719 5718 5716 5714 5712 5709 5707 5705 5704 5703 5702 5699 5698 5697 5695 5695 5694 5694 5693 5692 5690 5688 5686 5684 5682 5681 5678
5736 5735 5733 5732 5730 5729 5728 5726 5725 5724 5722 5721 5720 5719 5719 5718 5717 5715 5714 5712 5710 5707 5705 5703 5701 5699 5699 5698 5695 5693 5690 5688 5687 5689 5686 5685 5683 5682 5680 5678 5677 5675 5672
5733 5732 5730 5729 5727 5727 5725 5724 5722 5721 5719 5718 5716 5715 5715 5715 5713 5712 5711 5708 5706 5705 5703 5701 5699 5697 5696 5694 5691 5689 5686 5684 5682 5682 5678 5677 5677 5675 5674 5672 5670 5668 5665
5730 5728 5727 5725 5724 5723 5722 5720 5719 5716 5714 5713 5712 5710 5709 5708 5708 5707 5705 5703 5701 5700 5699 5697 5695 5694 5692 5691 5688 5686 5683 5679 5677 5674 5672 5669 5669 5667 5667 5665 5663 5660 5658
5726 5724 5722 5721 5719 5718 5717 5716 5714 5712 5709 5707 5706 5705 5704 5703 5702 5701 5699 5696 5694 5694 5692 5690 5688 5686 5685 5683 5681 5678 5675 5671 5668 5667 5664 5661 5660 5659 5658 5656 5654 5652 5649
5722 5720 5717 5716 5714 5713 5712 5711 5709 5707 5704 5702 5700 5699 5698 5697 5696 5694 5692 5690 5687 5685 5683 5682 5679 5678 5676 5674 5672 5670 5668 5664 5660 5658 5656 5652 5651 5648 5648 5648 5645 5641 5638